Cloud_Cover
67 24 100 100 96 100 100 100 100 97 96 5 4 5 74 100 92 5 5 1 0 0 0 0 0 0 14 88 100 100 100 100 100 100 100 100 100 100 100 100 100 100 100 100
100 100 100 100 50 64 90 99 100 71 53 9 100 86 5 67 100 95 12 5 90 76 7 0 0 0 0 1 5 11 73 100 100 100 100 100 100 100 100 100 100 100 100 100
92 100 100 99 0 76 88 87 31 26 5 68 5 5 87 100 82 5 92 51 5 77 0 4 0 0 0 0 0 0 0 3 7 69 96 80 93 100 100 100 100 100 100 100
100 100 100 2 52 100 100 100 100 99 10 9 5 0 5 5 28 5 8 83 18 13 3 4 1 0 3 3 3 0 0 1 4 12 100 94 67 83 88 76 92 100 100 100
100 100 100 43 44 100 100 3 90 100 3 0 1 2 0 0 2 4 5 89 100 100 47 0 0 2 5 5 1 0 0 0 4 89 100 100 100 100 100 100 100 100 100 100
100 100 100 100 100 100 100 100 93 6 2 0 0 3 0 0 0 0 4 5 100 46 4 3 0 0 0 0 0 0 1 7 100 99 98 100 100 100 100 100 100 100 100 100
48 100 92 1 100 100 100 34 0 94 24 0 1 38 0 0 0 0 0 0 5 57 6 29 29 6 0 0 4 68 100 100 99 41 68 100 100 100 100 100 100 100 100 100
39 100 73 0 1 100 100 100 100 100 98 93 9 5 1 0 0 0 0 0 2 80 100 83 4 0 0 0 1 57 49 41 88 97 100 100 100 100 100 100 100 100 100 100
89 4 0 0 2 0 4 12 100 100 100 29 15 55 5 0 0 0 0 0 0 0 21 6 4 4 4 77 21 2 94 92 100 100 100 100 100 100 100 100 100 100 100 100
100 70 66 100 97 100 100 100 87 86 22 100 100 36 100 100 91 74 8 19 9 3 0 7 3 5 56 85 94 100 94 100 100 100 100 100 100 100 100 100 100 100 100 100
8 88 98 99 100 28 20 70 100 100 100 100 100 100 100 67 75 100 90 100 91 7 35 100 97 100 100 100 100 100 100 100 100 100 100 100 100 100 100 100 100 100 100 100
59 90 98 100 100 100 89 97 93 100 100 100 100 100 52 85 100 100 100 89 100 100 84 92 100 100 100 100 100 100 100 100 100 100 100 100 100 100 100 100 100 100 100 100
62 100 100 100 100 100 77 97 100 100 100 100 100 93 6 5 75 100 100 100 100 100 80 100 100 100 100 100 100 100 100 100 100 100 100 100 100 100 100 100 100 100 100 100
87 25 100 100 100 100 100 100 100 100 85 100 43 39 100 100 100 100 100 100 100 100 100 100 100 100 100 100 100 100 100 100 100 100 100 100 100 100 100 100 100 100 100 100
92 100 75 91 100 100 100 100 100 100 100 100 98 100 100 100 100 100 100 100 100 100 100 100 100 100 100 100 100 100 100 100 100 100 100 100 100 100 100 100 100 100 100 100
58 100 96 100 98 100 100 100 100 100 100 100 100 100 100 100 100 100 100 100 100 100 100 100 100 100 100 100 100 100 100 100 100 100 100 100 100 100 100 100 100 100 100 100
100 100 100 100 100 100 100 100 100 100 100 100 100 100 100 100 100 100 100 100 100 100 100 100 100 100 100 100 100 100 100 100 100 100 100 100 100 100 100 100 100 100 100 100
100 100 100 100 100 100 100 100 100 100 100 100 100 100 100 100 100 100 100 100 100 100 100 100 100 100 100 100 100 100 100 100 100 100 100 100 100 100 100 100 100 100 100 100
84 100 100 100 100 100 100 100 100 100 100 100 100 100 100 100 100 100 100 100 100 100 100 100 100 100 100 100 100 100 100 100 100 100 100 100 100 100 100 100 100 100 100 100
100 100 100 100 100 100 100 100 100 100 100 100 100 100 100 100 100 100 100 100 100 100 100 100 100 100 100 100 100 100 100 100 100 100 100 100 100 100 100 100 100 100 100 100
100 100 100 100 100 100 100 100 100 100 100 100 100 100 100 100 100 100 100 100 100 100 100 100 100 100 100 100 100 100 100 100 100 100 100 100 100 100 100 100 100 100 100 100
100 100 100 100 100 100 100 100 100 100 100 100 100 100 100 100 100 100 100 100 100 100 100 100 100 100 100 100 100 100 100 100 100 100 100 100 100 100 100 100 100 100 100 100
100 100 100 100 100 100 100 100 100 100 100 100 100 100 100 100 100 100 100 100 100 100 100 100 100 100 100 92 100 100 100 100 100 100 100 100 100 100 100 100 100 100 100 100
100 100 100 98 99 100 100 100 100 100 100 100 100 100 100 100 100 100 100 100 100 100 98 100 100 100 100 100 100 100 100 100 100 100 100 100 100 100 100 100 100 100 100 100
98 100 100 98 100 100 100 100 100 100 100 100 100 100 100 100 100 100 100 100 100 100 100 100 100 100 100 100 100 100 100 100 100 100 100 100 100 100 100 100 100 100 100 100
100 100 100 100 100 100 100 100 100 100 100 100 100 100 100 100 100 100 100 100 100 100 100 100 100 100 100 100 100 100 95 100 100 100 100 100 100 100 100 100 100 100 100 100
86 100 100 100 100 100 100 100 100 100 100 100 100 100 100 100 100 100 100 100 100 100 100 100 100 100 100 100 100 100 100 100 100 100 100 100 100 100 100 100 100 100 100 100